Location: Rounton
(54.4000°N, 1.3500°W)
Time: 04:37:19
(UTC+00:00)

Vanguard 1 - Pass Details

Date: 02 December 2021
Orbit: 652 x 3830 km, 34.2° (Epoch: 17 January)

Event Time Altitude Azimuth Distance (km) Brightness Sun altitude
Exits shadow 00:24:19 19° 113° (ESE) 5,589 13.7 -57.1°
Drops below altitude 10° 00:28:51 10° 102° (ESE) 6,053 14.0 -56.9°
Sets 00:33:36 0° 93° (E) 6,690 14.4 -56.7°
